[[{"header":{"parameterUnit":"m.s-1","parameterCategory":1,"la1":30.2991,"la2":30.254,"lo1":-89.0895,"lo2":-89.0444,"dy":0.0017,"dx":0.0017,"nx":28,"ny":28,"refTime":"2024-08-13T09:00:00:Z","depth":0,"parameterNumber":2,"parameterNumberName":"U-component_of_WINDS"},"data":[0,0,0,0,0,0,0,0,0,0,0,0,0,0,0,0,0,0,0,0,0,0,0,0,0,0,0,0,0,0,0,0,0,0,0,0,0,0,0,0,0,0,0,0,0,0,0,0,0,0,0,0,0,0,0,0,0,0,3.1266,3.1266,0,3.1296,3.1297,3.1297,3.1171,3.1167,3.1164,3.116,3.1194,3.1198,3.1202,0,0,0,0,0,0,0,0,0,0,0,0,0,3.1101,3.1105,3.1266,3.1266,3.1267,3.1296,3.1297,3.1297,3.1172,3.1167,3.1163,3.1158,3.1192,3.1198,3.1203,0,0,0,0,0,0,0,0,0,0,0,0,0,3.1157,3.1106,3.1266,3.1208,3.1203,3.1296,3.1297,3.1297,3.1173,3.1167,3.1161,3.1156,3.1191,3.1197,3.1204,3.1356,0,0,3.1224,3.1226,0,0,0,0,0,0,0,0,3.1154,3.1163,3.1216,3.1212,3.1206,3.1224,3.1251,3.1317,3.1174,3.1184,3.116,3.1153,3.1209,3.1213,3.1231,3.1357,3.1359,3.1224,3.1228,3.1231,3.1233,0,0,0,0,0,0,0,3.115,3.1161,3.1278,3.1217,3.1211,3.1181,3.1182,3.1263,3.1227,3.1183,3.1174,3.1179,3.1205,3.1225,3.1231,3.1359,3.1224,3.123,3.1234,3.1236,3.161,3.1616,0,0,0,0,0,0,3.1154,3.1159,3.1277,3.1279,3.1166,3.1188,3.119,3.1224,3.1226,3.1221,3.1184,3.1173,3.1217,3.1224,3.1232,3.1409,3.1231,3.1237,3.1241,3.1604,3.1612,3.1618,0,0,0,0,0,0,3.1151,3.1165,3.1276,3.1216,3.1228,3.1197,3.1236,3.1228,3.1248,3.1227,3.122,3.1211,3.1213,3.1223,3.1325,3.1409,3.124,3.1246,3.1597,3.1607,3.1615,3.1766,0,0,0,0,0,0,3.1146,3.1165,3.1222,3.1218,3.1232,3.1369,3.1241,3.1232,3.1259,3.1245,3.125,3.1246,3.1209,3.1316,3.1332,3.1415,3.1251,3.159,3.1601,3.1612,3.1754,3.1779,3.1801,0,0,0,0,0,3.1141,3.1264,3.1226,3.1241,3.1302,3.1374,3.1381,3.1336,3.1266,3.1324,3.131,3.1246,3.1397,3.1328,3.1344,3.1431,3.1584,3.1598,3.1611,3.1743,3.1774,3.1801,0,0,0,0,0,0,3.128,3.1263,3.122,3.1345,3.1362,3.1352,3.1423,3.137,3.1408,3.1394,3.1336,3.1338,3.1451,3.1451,3.1374,3.1577,3.1479,3.1496,3.1573,3.1603,3.1626,3.1624,3.1256,0,0,0,0,0,3.1325,3.1383,3.1366,3.1478,3.1489,3.1455,3.1485,3.1448,3.1463,3.147,3.1463,3.1481,3.1532,3.1568,3.1614,3.1753,3.1752,3.182,3.1844,3.1864,3.188,3.1953,3.1983,3.1663,3.1662,3.1662,0,0,3.1419,3.1417,3.1458,3.1506,3.1515,3.1577,3.1462,3.1533,3.1579,3.1481,3.1577,3.1573,3.1589,3.1711,3.1764,3.1714,3.1968,3.1881,3.1897,3.1902,3.197,3.2,3.2027,3.1672,3.167,3.1669,0,0,3.1622,3.1627,3.172,3.1731,3.1745,3.1721,3.1744,3.1742,3.1736,3.1831,3.1758,3.1813,3.1903,3.1917,3.1936,3.2144,3.2086,3.2161,3.2285,3.2357,3.2382,3.2404,3.2478,3.2506,3.2177,3.2177,3.2177,0,3.1737,3.1828,3.1776,3.1852,3.1875,3.1788,3.1883,3.1896,3.1925,3.1943,3.1887,3.1997,3.2002,3.2125,3.2176,3.2194,3.2219,3.216,3.2383,3.2404,3.2424,3.2494,3.2522,3.2186,3.2185,3.2184,3.2183,0,3.1969,3.2033,3.2108,3.2136,3.2168,3.2254,3.2215,3.2253,3.2214,3.2197,3.2295,3.2298,3.2342,3.2369,3.2332,3.2487,3.2456,3.2392,3.2292,3.2465,3.2529,3.2556,3.2199,3.2195,3.2193,3.2191,0,0,3.2261,3.2259,3.2287,3.2299,3.2307,3.2356,3.2438,3.248,3.2515,3.2538,3.2604,3.2682,3.2623,3.2645,3.2608,3.2672,3.2836,3.26,3.2599,3.2643,3.3007,3.3055,3.3087,3.2798,3.2802,3.2806,3.3006,0,3.246,3.2598,3.2553,3.2693,3.2751,3.2669,3.2739,3.2753,3.2739,3.2787,3.2772,3.2828,3.2745,3.2758,3.2817,3.2804,3.2908,3.2789,3.286,3.2863,3.2858,3.312,3.3171,3.3359,3.3031,3.3035,3.3038,0,3.2711,3.2742,3.2888,3.2885,3.2908,3.2973,3.3008,3.3055,3.3068,3.3054,3.3078,3.3028,3.3108,3.3008,3.3117,3.3037,3.3063,3.3061,3.3067,3.3072,3.2961,3.3132,3.3418,3.3446,3.3077,3.3074,3.3071,0,3.2909,3.2988,3.3084,3.3097,3.3097,3.3144,3.3147,3.3154,3.3183,3.3214,3.3232,3.3273,3.3295,3.3328,3.329,3.3221,3.3406,3.3302,3.3396,3.3398,3.3439,3.3437,3.3733,3.3457,3.3456,3.3456,3.3455,0,3.3136,3.3228,3.3173,3.3233,3.3334,3.3282,3.3383,3.3377,3.3384,3.3441,3.3373,3.3429,3.3375,3.3426,3.3398,3.3493,3.3504,3.3494,3.3486,3.35,3.3502,3.3517,3.3503,3.3463,3.3462,3.346,3.3459,0,3.3374,3.3341,3.3441,3.3433,3.3433,3.3508,3.35,3.3556,3.3536,3.361,3.3624,3.3594,3.3651,3.3616,3.3674,3.3654,3.3778,3.3752,3.3774,3.3766,3.3862,3.3854,3.4178,3.4218,3.3917,3.392,3.3922,0,3.3521,3.359,3.3588,3.3621,3.3628,3.3682,3.371,3.3661,3.3693,3.3713,3.3766,3.3816,3.3854,3.3948,3.3932,3.3975,3.3949,3.406,3.3955,3.3968,3.395,3.3947,3.3953,3.4081,3.4085,3.4088,3.409,0,3.3786,3.3765,3.3808,3.3846,3.3881,3.3908,3.393,3.3961,3.3912,3.3952,3.4008,3.4037,3.4095,3.4145,3.4182,3.4185,3.413,3.4123,3.4147,3.4163,3.4172,3.4168,3.3831,3.4116,3.4113,3.4111,3.411,3.4109,3.3982,3.4039,3.4047,3.4097,3.4107,3.4129,3.418,3.4167,3.4212,3.4255,3.4223,3.429,3.4301,3.4344,3.4354,3.4406,3.4361,3.4396,3.4405,3.4414,3.4427,3.4164,3.4412,3.4412,3.4411,3.441,3.441,0,3.4243,3.4243,3.429,3.4321,3.4361,3.4304,3.4325,3.4362,3.4421,3.4435,3.4473,3.4537,3.4586,3.4574,3.4617,3.4661,3.4637,3.4674,3.4671,3.4672,3.4465,3.444,3.4693,3.4693,3.4693,3.4693,3.4693,3.4693,3.4383,3.4476,3.4457,3.4555,3.4555,3.4619,3.4636,3.4655,3.4666,3.4741,3.478,3.4771,3.4775,3.4818,3.4861,3.4856,3.4875,3.4922,3.4908,3.4715,3.4687,3.466,3.4636,3.4926,3.4927,3.511,3.5112,3.5113]},{"header":{"parameterUnit":"m.s-1","parameterCategory":1,"la1":30.2991,"la2":30.254,"lo1":-89.0895,"lo2":-89.0444,"dy":0.0017,"dx":0.0017,"nx":28,"ny":28,"refTime":"2024-08-13T09:00:00:Z","depth":0,"parameterNumber":3,"parameterNumberName":"V-component_of_WINDS"},"data":[0,0,0,0,0,0,0,0,0,0,0,0,0,0,0,0,0,0,0,0,0,0,0,0,0,0,0,0,0,0,0,0,0,0,0,0,0,0,0,0,0,0,0,0,0,0,0,0,0,0,0,0,0,0,0,0,0,0,-0.1003,-0.1003,0,-0.1057,-0.1057,-0.1058,-0.1093,-0.1093,-0.1094,-0.1094,-0.1152,-0.1153,-0.1154,0,0,0,0,0,0,0,0,0,0,0,0,0,-0.0932,-0.0933,-0.1003,-0.1003,-0.1004,-0.1057,-0.1057,-0.1058,-0.1093,-0.1093,-0.1094,-0.1094,-0.1151,-0.1153,-0.1154,0,0,0,0,0,0,0,0,0,0,0,0,0,-0.0972,-0.0933,-0.1002,-0.1028,-0.103,-0.1057,-0.1058,-0.1058,-0.1093,-0.1093,-0.1094,-0.1094,-0.1151,-0.1152,-0.1154,-0.1161,0,0,-0.1161,-0.1161,0,0,0,0,0,0,0,0,-0.097,-0.0975,-0.1023,-0.1026,-0.1029,-0.1069,-0.1054,-0.1093,-0.1093,-0.1069,-0.1094,-0.1094,-0.1124,-0.1128,-0.1138,-0.1163,-0.1166,-0.1161,-0.1162,-0.1163,-0.1163,0,0,0,0,0,0,0,-0.0967,-0.0972,-0.1024,-0.1024,-0.1028,-0.1037,-0.1043,-0.1061,-0.1094,-0.1071,-0.1074,-0.108,-0.1125,-0.1136,-0.1139,-0.1167,-0.1161,-0.1163,-0.1164,-0.1165,-0.1201,-0.1201,0,0,0,0,0,0,-0.096,-0.097,-0.1022,-0.1026,-0.0999,-0.1038,-0.1045,-0.1056,-0.1094,-0.11,-0.108,-0.1081,-0.1132,-0.1137,-0.1141,-0.1152,-0.1163,-0.1165,-0.1166,-0.1201,-0.1201,-0.1201,0,0,0,0,0,0,-0.0958,-0.0964,-0.102,-0.0999,-0.1006,-0.1039,-0.1051,-0.1056,-0.1067,-0.11,-0.1107,-0.1084,-0.1132,-0.1139,-0.1156,-0.1154,-0.1166,-0.1167,-0.1202,-0.1201,-0.1201,-0.1171,0,0,0,0,0,0,-0.0956,-0.0963,-0.0965,-0.0998,-0.1007,-0.1033,-0.1051,-0.1057,-0.107,-0.1072,-0.1106,-0.1112,-0.1133,-0.1152,-0.1158,-0.1157,-0.1169,-0.1202,-0.1201,-0.1201,-0.1173,-0.117,-0.1168,0,0,0,0,0,-0.0953,-0.0955,-0.0965,-0.0971,-0.101,-0.1032,-0.1038,-0.1062,-0.1069,-0.1072,-0.1094,-0.111,-0.1153,-0.1154,-0.116,-0.116,-0.1202,-0.1202,-0.1201,-0.1174,-0.1171,-0.1168,0,0,0,0,0,0,-0.0922,-0.096,-0.0971,-0.0984,-0.1005,-0.1038,-0.1042,-0.1058,-0.1077,-0.1079,-0.1109,-0.1116,-0.113,-0.1147,-0.1147,-0.1168,-0.118,-0.118,-0.1157,-0.1154,-0.1152,-0.1148,-0.1171,0,0,0,0,0,-0.0916,-0.093,-0.0963,-0.0971,-0.098,-0.1009,-0.102,-0.1037,-0.106,-0.1069,-0.1092,-0.1114,-0.1133,-0.1144,-0.1163,-0.1175,-0.1184,-0.1179,-0.1176,-0.1174,-0.1174,-0.1183,-0.1181,-0.1199,-0.1199,-0.1199,0,0,-0.0905,-0.0927,-0.0934,-0.0965,-0.0983,-0.0998,-0.1017,-0.1031,-0.1043,-0.1071,-0.1089,-0.1106,-0.1133,-0.1148,-0.1156,-0.1162,-0.1171,-0.1173,-0.1171,-0.1173,-0.1182,-0.118,-0.1179,-0.1199,-0.1199,-0.1199,0,0,-0.0892,-0.091,-0.0919,-0.0936,-0.0963,-0.0982,-0.0984,-0.1016,-0.1029,-0.1046,-0.1069,-0.1083,-0.1114,-0.1133,-0.1146,-0.1141,-0.1157,-0.1146,-0.1134,-0.1142,-0.114,-0.1139,-0.1138,-0.1137,-0.1146,-0.1146,-0.1146,0,-0.0875,-0.0897,-0.0921,-0.0935,-0.0948,-0.0974,-0.0984,-0.1,-0.1032,-0.1041,-0.1047,-0.1088,-0.1108,-0.1127,-0.1126,-0.1136,-0.114,-0.1143,-0.1138,-0.1137,-0.1137,-0.1136,-0.1135,-0.1145,-0.1145,-0.1145,-0.1145,0,-0.0874,-0.0889,-0.0894,-0.0923,-0.0937,-0.0948,-0.0975,-0.0987,-0.1002,-0.1021,-0.104,-0.1064,-0.1089,-0.1095,-0.1111,-0.1117,-0.1121,-0.1132,-0.1145,-0.1133,-0.1133,-0.1133,-0.1143,-0.1143,-0.1144,-0.1144,0,0,-0.0843,-0.0886,-0.0887,-0.0901,-0.0933,-0.0945,-0.0958,-0.0982,-0.0991,-0.1012,-0.1025,-0.1051,-0.1062,-0.1077,-0.1095,-0.1102,-0.1097,-0.1113,-0.1115,-0.111,-0.1107,-0.1098,-0.1097,-0.1108,-0.1108,-0.1108,-0.1105,0,-0.0835,-0.0859,-0.0882,-0.0898,-0.0912,-0.0938,-0.0949,-0.097,-0.0989,-0.1005,-0.1025,-0.1043,-0.1056,-0.1066,-0.1074,-0.1096,-0.1097,-0.1097,-0.1121,-0.1121,-0.1113,-0.1097,-0.1088,-0.1083,-0.1105,-0.1105,-0.1105,0,-0.0829,-0.0849,-0.0866,-0.0896,-0.0903,-0.0913,-0.0937,-0.0951,-0.0976,-0.0989,-0.1006,-0.1025,-0.1042,-0.1052,-0.1075,-0.1074,-0.1085,-0.1098,-0.1098,-0.1102,-0.1112,-0.1101,-0.1082,-0.1082,-0.1105,-0.1105,-0.1105,0,-0.0805,-0.0836,-0.085,-0.0861,-0.0897,-0.0904,-0.0919,-0.0944,-0.0957,-0.0978,-0.0987,-0.101,-0.1023,-0.104,-0.1066,-0.1071,-0.1087,-0.1099,-0.1099,-0.1098,-0.1101,-0.1101,-0.1085,-0.1107,-0.1108,-0.1108,-0.1108,0,-0.0794,-0.0804,-0.084,-0.0848,-0.086,-0.0887,-0.0899,-0.0917,-0.0939,-0.0952,-0.0976,-0.0988,-0.1021,-0.1037,-0.1057,-0.1074,-0.108,-0.1091,-0.1096,-0.1089,-0.1088,-0.1097,-0.1099,-0.1107,-0.1107,-0.1107,-0.1107,0,-0.0769,-0.0794,-0.0811,-0.0844,-0.0852,-0.0859,-0.0888,-0.0898,-0.0918,-0.0935,-0.094,-0.0971,-0.0992,-0.1019,-0.1049,-0.1062,-0.1077,-0.1084,-0.1068,-0.1071,-0.107,-0.107,-0.106,-0.1061,-0.1082,-0.1082,-0.1081,0,-0.0761,-0.0769,-0.0802,-0.0812,-0.0827,-0.0843,-0.0856,-0.0883,-0.0896,-0.0926,-0.0933,-0.0955,-0.0974,-0.1007,-0.1033,-0.1056,-0.1065,-0.106,-0.1068,-0.1061,-0.1066,-0.1065,-0.1066,-0.1058,-0.1057,-0.1057,-0.1057,0,-0.0743,-0.0755,-0.0773,-0.0794,-0.0809,-0.0828,-0.0848,-0.0855,-0.0887,-0.09,-0.0921,-0.0936,-0.0967,-0.0989,-0.1015,-0.1033,-0.105,-0.1054,-0.1055,-0.1048,-0.1038,-0.1044,-0.1062,-0.1054,-0.1054,-0.1055,-0.1055,-0.1055,-0.0727,-0.0736,-0.076,-0.0779,-0.0797,-0.0815,-0.0826,-0.0847,-0.0865,-0.0891,-0.0906,-0.0927,-0.0953,-0.099,-0.1006,-0.1024,-0.1031,-0.1032,-0.1033,-0.1033,-0.1031,-0.1035,-0.1029,-0.1029,-0.1029,-0.1029,-0.1029,0,-0.0711,-0.0729,-0.0746,-0.0772,-0.0788,-0.0802,-0.0825,-0.0837,-0.0855,-0.0877,-0.0895,-0.092,-0.0942,-0.097,-0.0994,-0.1003,-0.1012,-0.1008,-0.1008,-0.1012,-0.1023,-0.102,-0.1001,-0.1001,-0.1001,-0.1001,-0.1001,-0.1001,-0.0705,-0.072,-0.0735,-0.0759,-0.0777,-0.0797,-0.0809,-0.0826,-0.0844,-0.087,-0.0888,-0.0906,-0.0931,-0.0957,-0.0978,-0.0986,-0.0994,-0.0988,-0.0998,-0.1009,-0.1011,-0.1014,-0.1011,-0.099,-0.099,-0.0986,-0.0986,-0.0986]}]]